Orbital Elements at Epoch 2459000.5 (2020-May-31.0) TDB
Reference: JPL 29 (heliocentric ecliptic J2000)
Element | Value | Uncertainty (1-sigma) | Units |
e | .1225829199600171 | 3.7637e-08 | |
a | 2.818358205345375 | 1.6797e-08 | au |
q | 2.472875627040865 | 1.0614e-07 | au |
i | 2.133673612371441 | 4.1682e-06 | deg |
node | 314.1797721300721 | 0.00012569 | deg |
peri | 109.8266817465164 | 0.0001272 | deg |
M | 208.0801754048834 | 2.2062e-05 | deg |
tp | 2459729.797393194012 (2022-May-30.29739319) | 0.00010969 | TDB |
period | 1728.194870218959 4.73 | 1.5449e-05 4.23e-08 | d yr |
n | .2083098417913882 | 1.8622e-09 | deg/d |
Q | 3.163840783649884 | 1.8856e-08 | au |
|
| | Orbit Determination Parameters
Additional Information
|